Location: Newark
(39.5667°N, 8.9833°E)
Time: 05:49:02
(UTC+00:00)

Transit 2A - Pass Details

Date: 23 October 2019
Orbit: 601 x 957 km, 66.7° (Epoch: 11 November)

Event Time Altitude Azimuth Distance (km) Brightness Sun altitude
Rises 02:14:31 0° 340° (NNW) 2,890 - -40.1°
Reaches altitude 10° 02:17:03 10° 352° (N) 1,961 - -39.7°
Maximum altitude 02:20:52 29° 53° (NE) 1,122 - -39.0°
Drops below altitude 10° 02:24:39 10° 114° (ESE) 1,953 - -38.3°
Exits shadow 02:25:49 - 120° (ESE) 2,368 9.0 -38.1°
Sets 02:27:10 0° 126° (SE) 2,876 9.4 -37.9°
